Location: Tel Aviv
(32.0670°N, 34.7670°E)
Time: 14:54:44
(UTC+03:00)

STRAND 1 - Visible Passes

Search period start: 17 September 2024 00:00
Search period end: 27 September 2024 00:00
Orbit: 765 x 777 km, 98.4° (Epoch: 16 September)

Date Brightness Start Highest point End Pass type
(mag) Time Alt. Az. Time Alt. Az. Time Alt. Az.
17 Sep ? 05:32:28 10° SE 05:36:52 31° ENE 05:41:18 10° N visible
17 Sep ? 19:25:28 10° N 19:30:22 47° WNW 19:35:16 10° SW visible
18 Sep ? 04:59:35 10° E 05:02:05 14° ENE 05:04:35 10° NE visible
18 Sep ? 20:32:49 10° NW 20:33:44 10° WNW 20:34:38 10° WNW visible
19 Sep ? 06:00:33 10° SSE 06:05:33 62° ENE 06:10:35 10° N visible
19 Sep ? 19:54:56 10° NNW 19:59:00 24° WNW 20:03:04 10° WSW visible
20 Sep ? 05:26:25 10° SE 05:30:36 27° ENE 05:34:50 10° NNE visible
20 Sep ? 19:19:05 10° N 19:24:06 55° WNW 19:29:05 10° SSW visible
21 Sep ? 04:54:04 10° E 04:55:51 12° ENE 04:57:39 10° NE visible
21 Sep ? 20:25:29 10° NW 20:27:30 12° WNW 20:29:31 10° W visible
22 Sep ? 05:54:20 10° SSE 05:59:15 53° ENE 06:04:13 10° N visible
22 Sep ? 19:48:26 10° NNW 19:52:45 28° WNW 19:57:02 10° SW visible
23 Sep ? 05:20:23 10° ESE 05:24:20 23° ENE 05:28:19 10° NNE visible
23 Sep ? 19:12:42 10° N 19:17:48 64° WNW 19:22:51 10° SSW visible
24 Sep ? 04:49:30 10° ENE 04:49:37 10° ENE 04:49:43 10° ENE visible
24 Sep ? 20:18:35 10° NW 20:21:15 14° WNW 20:23:55 10° W visible
25 Sep ? 05:48:06 10° SE 05:52:57 46° ENE 05:57:48 10° N visible
25 Sep ? 19:41:56 10° N 19:46:27 32° WNW 19:50:56 10° SW visible
26 Sep ? 05:14:23 10° ESE 05:18:03 20° ENE 05:21:43 10° NNE visible
26 Sep ? 19:06:20 10° N 19:11:28 74° WNW 19:16:34 10° SSW visible
